Dewpoint
44 44 43 43 46 48 49 49 50 52 53 55 56 57 60 62 62 63 63 63 63 62 62 62 61 62 62 65 64 64 65 64 62 60 60 61 60 61 62 61 62 61 61
40 39 39 40 42 44 45 47 49 50 52 55 57 58 60 61 62 63 64 64 64 64 64 64 64 64 62 64 68 67 65 63 61 59 59 60 59 60 60 59 61 62 59
40 41 42 43 44 45 46 48 49 50 51 53 55 56 58 60 61 62 64 65 65 65 65 65 65 65 66 67 67 66 63 63 61 59 58 59 59 59 57 57 58 57 59
43 44 43 43 43 44 46 48 49 50 51 51 51 52 55 55 56 57 58 60 62 64 66 66 67 67 67 67 66 66 62 62 61 60 58 57 57 57 56 55 56 60 56
38 38 39 39 41 45 48 50 52 53 54 54 53 54 55 55 55 55 56 57 60 62 64 67 68 68 64 65 67 64 62 61 59 58 57 55 56 57 55 55 55 56 55
41 40 42 45 47 48 48 48 49 49 49 50 53 54 54 54 50 50 52 55 58 60 61 64 66 64 63 59 59 59 62 61 59 58 56 56 55 55 54 55 55 56 57
41 41 43 44 44 45 44 45 46 46 47 48 49 51 52 53 49 48 48 53 57 58 60 62 64 67 62 65 56 55 56 55 58 60 58 57 56 56 55 54 55 54 54
42 42 42 43 43 43 43 42 42 44 46 46 46 48 50 52 48 46 47 52 55 57 59 61 63 65 65 64 62 62 61 59 59 61 60 59 58 57 57 57 56 55 55
39 39 41 42 43 43 42 41 43 44 44 45 46 48 49 51 48 47 49 55 57 58 60 62 65 65 57 50 63 62 59 58 52 51 52 52 51 51 55 57 55 55 53
35 37 39 42 42 42 42 42 42 44 43 44 42 45 50 51 49 47 49 55 55 58 60 63 54 61 49 48 62 60 59 57 58 57 57 53 52 51 50 58 57 55 53
38 37 39 42 42 43 43 43 43 43 44 46 47 48 52 53 53 47 45 54 57 59 61 63 61 49 46 47 52 60 58 58 55 57 57 56 57 56 57 57 58 57 54
40 40 40 40 41 41 43 42 43 46 46 47 48 49 52 53 49 48 46 45 50 58 61 62 60 45 45 45 51 49 46 52 57 56 55 55 55 56 57 58 58 58 58
39 39 39 39 40 41 42 42 43 46 47 47 48 49 51 54 55 49 47 45 44 49 60 59 50 44 44 47 49 45 48 58 57 55 55 55 56 56 56 57 57 57 57
39 40 41 42 42 43 43 43 45 47 48 48 48 49 51 53 55 55 55 56 48 50 49 50 51 51 49 53 50 50 58 59 58 56 55 56 57 56 56 56 55 55 55
39 39 38 40 41 42 44 45 46 47 48 49 50 51 51 53 54 52 52 56 57 54 53 54 56 57 56 56 56 57 59 59 57 57 58 58 57 56 56 56 55 54 53
40 40 41 42 44 46 47 47 43 44 44 43 43 49 53 47 45 43 43 43 45 45 56 57 58 58 57 57 58 58 59 57 57 58 59 58 56 56 56 55 54 54 53
41 40 42 44 47 47 48 48 47 45 42 41 40 40 41 46 42 42 42 41 42 45 57 58 57 57 56 57 57 58 58 59 59 59 59 57 57 57 56 55 54 53 53
44 42 45 46 47 48 48 48 48 48 48 49 44 42 41 40 40 41 41 44 50 52 58 57 56 55 55 55 55 55 56 57 57 57 56 57 56 57 56 55 55 55 55
44 46 46 48 47 47 48 48 49 49 50 50 49 44 42 39 40 40 42 57 57 57 57 56 56 55 55 56 55 56 56 56 56 56 56 56 57 56 55 54 51 45 50
46 43 45 48 49 48 48 49 49 50 50 50 48 48 47 46 48 48 53 58 57 57 56 56 56 56 56 56 56 57 55 54 55 56 56 57 57 55 54 53 52 52 51
48 48 46 50 49 50 50 50 50 51 50 52 50 48 40 52 52 54 57 57 57 57 56 56 56 56 56 56 56 56 57 57 58 57 57 56 56 53 54 54 53 53 53
48 49 50 48 51 52 52 52 53 52 51 52 51 47 38 57 57 56 56 56 55 55 56 56 56 56 57 57 56 57 57 57 57 57 56 56 55 54 55 55 54 54 53
53 55 55 55 55 51 55 54 53 53 51 52 51 51 54 57 56 56 54 53 52 53 53 55 55 53 54 55 56 57 57 57 57 57 55 56 54 50 47 47 49 48 45
56 55 55 55 54 54 53 53 53 50 53 55 54 54 53 52 51 49 48 48 48 48 49 50 52 52 52 52 53 55 56 57 56 54 52 48 44 42 42 41 39 38 36
54 53 53 53 52 52 51 51 51 51 51 51 49 48 48 48 47 46 45 46 46 45 43 44 47 47 47 48 48 48 41 41 47 41 42 39 37 35 33 31 31 31 28
52 51 52 51 50 50 49 48 48 47 46 46 46 45 44 44 44 43 43 43 41 41 40 39 39 39 39 40 40 35 34 34 35 33 34 33 30 28 27 26 25 24 24
Lifted_Index
3 3 4 4 5 5 5 5 5 4 4 3 1 0 -1 -1 -2 -3 -3 -3 -2 -2 -2 -2 -2 -1 -1 -2 -3 -3 -4 -4 -4 -4 -4 -3 -3 -3 -2 -2 -2 -2 -1
3 3 4 4 4 5 5 5 5 4 4 3 2 1 0 -1 -1 -2 -3 -3 -3 -3 -3 -3 -2 -2 -2 -3 -4 -4 -4 -4 -4 -4 -4 -3 -3 -2 -2 -2 -2 -1 -1
3 3 3 3 4 4 4 4 4 4 4 3 3 2 1 1 0 -1 -2 -3 -4 -4 -4 -4 -3 -3 -4 -4 -4 -4 -4 -4 -4 -4 -4 -3 -3 -2 -2 -2 -1 -0 0
3 3 3 3 3 4 4 4 4 4 3 3 3 3 2 2 1 1 -0 -2 -3 -4 -4 -5 -5 -5 -5 -5 -5 -5 -4 -4 -4 -4 -4 -3 -3 -2 -2 -1 -0 0 0
3 3 2 3 3 3 4 4 4 4 4 3 3 3 2 2 2 2 2 0 -1 -2 -4 -5 -5 -6 -6 -6 -5 -5 -5 -5 -4 -4 -4 -3 -3 -2 -1 -0 0 1 1
3 3 3 3 3 3 4 4 4 4 4 4 4 3 3 3 2 2 3 2 1 -1 -2 -4 -5 -6 -6 -6 -6 -6 -5 -5 -5 -4 -3 -3 -2 -2 -1 -0 1 1 1
2 3 3 3 3 3 4 4 4 4 4 4 5 4 4 4 3 3 3 3 2 1 -1 -3 -4 -5 -6 -6 -6 -6 -5 -5 -5 -4 -3 -3 -2 -2 -1 0 1 1 1
3 3 3 4 4 4 4 4 4 4 4 5 5 5 5 4 4 4 3 3 2 2 0 -2 -4 -5 -6 -6 -5 -5 -4 -4 -4 -4 -3 -2 -2 -1 -1 0 1 1 1
3 4 4 5 5 5 5 5 5 5 5 5 6 6 5 5 4 4 3 3 2 2 0 -1 -3 -5 -5 -5 -5 -4 -4 -4 -4 -3 -2 -1 -1 -1 -0 0 0 1 0
5 5 5 5 5 5 5 5 5 5 5 6 6 6 5 4 4 3 3 3 2 1 -0 -2 -3 -4 -5 -5 -4 -4 -4 -3 -3 -2 -2 -1 -0 -0 -0 0 0 0 0
6 6 6 6 5 5 5 5 5 5 5 6 6 6 5 4 3 3 3 3 3 2 -0 -2 -3 -3 -4 -3 -3 -3 -3 -3 -2 -2 -1 -0 -0 0 0 0 -0 -0 -0
7 7 6 6 6 5 5 5 5 5 5 5 5 5 4 3 3 2 2 3 3 2 -0 -2 -3 -3 -3 -2 -2 -3 -3 -2 -1 -1 -0 0 0 0 0 0 -0 -0 -0
7 7 6 6 6 6 6 6 5 5 5 5 4 4 3 3 2 2 2 3 2 1 -0 -2 -2 -2 -2 -2 -2 -2 -2 -1 -1 -0 0 1 1 1 1 0 0 0 0
8 7 6 6 6 6 6 6 6 5 5 4 4 3 3 2 1 1 1 2 2 1 -1 -2 -2 -2 -1 -1 -1 -2 -2 -1 -0 0 0 1 1 1 1 1 1 1 1
8 8 7 6 6 6 6 6 6 5 4 4 3 3 2 1 1 0 1 1 1 -0 -2 -2 -2 -2 -1 -1 -1 -1 -1 -1 -0 0 1 1 1 1 1 1 1 1 1
9 8 7 6 6 5 5 5 5 4 4 3 3 2 2 1 1 1 1 1 -0 -1 -2 -2 -2 -2 -2 -1 -2 -1 -1 -1 -0 0 1 1 1 1 1 1 1 1 1
9 8 7 6 6 5 5 5 4 4 3 2 2 1 1 2 2 2 2 1 -0 -1 -2 -2 -2 -2 -1 -1 -1 -1 -1 -1 -0 -0 0 0 0 1 1 1 1 1 1
9 8 7 6 5 5 4 4 4 4 3 2 1 1 1 2 3 3 2 1 -1 -1 -2 -1 -1 -1 -1 -0 -0 -0 -0 -0 -0 -0 0 0 0 1 1 1 1 2 2
8 7 6 5 5 4 4 4 4 3 3 2 1 1 2 2 2 2 2 0 -1 -1 -1 -1 -0 0 0 1 0 0 0 0 0 0 0 1 1 1 1 2 2 2 2
7 6 5 4 4 4 4 3 3 2 2 2 2 1 1 1 1 1 0 -0 -1 -1 -1 -0 0 1 1 1 1 1 1 0 0 0 1 1 1 1 2 2 2 2 2
5 4 4 4 4 4 3 3 2 2 2 2 2 1 1 1 1 0 -0 -0 -0 -0 0 1 1 1 1 1 1 1 1 1 1 1 1 1 1 1 2 2 2 2 2
4 4 4 4 4 4 4 3 3 3 3 3 3 2 2 1 1 0 0 -0 -0 0 1 1 1 1 1 1 1 1 1 1 1 1 1 1 2 2 2 2 2 2 2
3 3 4 4 4 4 4 3 3 3 4 4 4 4 3 2 1 0 0 0 0 1 1 1 1 1 1 1 1 2 2 2 2 1 1 2 2 2 2 2 2 2 2
2 2 3 3 3 3 3 3 3 3 4 4 4 4 3 2 1 0 0 0 1 1 1 1 1 1 1 1 2 2 2 2 2 2 1 1 1 1 2 2 2 2 3
2 2 2 2 2 1 1 2 2 2 2 2 3 2 2 1 1 0 1 1 1 1 1 1 1 2 2 2 2 2 2 2 2 2 1 1 2 2 2 2 3 3 4
1 1 1 1 1 1 1 1 1 1 1 1 2 2 1 1 1 1 0 0 1 1 1 1 2 3 3 3 2 2 2 2 2 2 1 1 2 2 3 3 3 4 5